Погода Ачисай

Погода Ачисай : погода сейчас, прогноз погоды и архив. Всё, что Вы хотите узнать о погоде Ачисай!

Поиск расширенной информации на нашем сайте:

Другие новости

Новости СМИ2

Главная страница сайта

Новости сайта

02.10.2013

Напоминаем, что на нашем новом сайте вы можете получить высокодетализированные прогнозы погоды по пунктам России, СНГ и мира (включающие важные для авиации метеовеличины, такие как направление и скорость ветра, видимость, явления погоды, количество и форма облачности, нижняя и верхняя граница облачности), а также ознакомиться с разнообразными материалами по авиационной метеорологии и подборкой полезных ссылок на эту тему.

Сайт Метеоцентр.Азия посвящён разработке технологий оптимизации авиаметеорологического обслуживания, включая проектирование и перспективное создание нескольких автоматизированных авиаметеорологических систем:
- система выпуска высокодетальных прогностических карт явлений погоды для нижнего воздушного пространства по России и ближнему зарубежью;
- система верификации прогнозов TAF (выпускаемых синоптиками официальных АМСГ РФ и ближнего зарубежья) и AUTOTAF (выпускаемых сайтом Метеоцентр.Азия) - выявление ошибок, онлайн-сопоставление с фактической погодой METAR, автоматическое внесение коррективов в прогнозы при резком отклонении фактической погоды от прогноза, подсчёт оправдываемости прогнозов по элементам и в целом;
- система обработки, анализа и отображения авиаметеорологической информации для применения провайдерами метеорологической информации.


Погода Ачисай - сегодня

Время (UTC), дата Ветер
(°,м/с) 
Видим.   Явления Облачность Т
(°С)
Тd
(°С)
f(%) Тe
(°С)
Pmin
(гПа)
dP
(гПа)
Po
(мм)
O2
(г/м3)
Тmin Tmax R s Состояние
почвы
21 17.01.17 тихо ()   20000 м    10/0 верхняя 
[Ci sp]
-3.6 -10.6 58 -4  1028.6  -0.2  696  285           
00 18.01.17 тихо ()   20000 м    8/3 1000 м верхняя 
[Sc|Ci sp]
-2.2 -6.9 70 -2  1028.5  0.5  696  283           
03 18.01.17 тихо ()   20000 м    8/3 1500 м средняя, верхняя 
[Sc|Ac trans|Ci sp]
-2 -5.9 75 -2  1029.8  1.2  697  284        22  равномерный
мокрый или
старый снег
100% 
06 18.01.17 тихо ()   20000 м    3/1 1500 м верхняя 
[Sc|Ci sp]
+0.1 -5.6 65 1030.1  698  282  -4.9         
09 18.01.17 тихо ()   20000 м    10/10 600 м кучево-дожд. 
[Cb cap]
-0.4 -5.5 68 -0  1030.2  -0.1  698  282           
12 18.01.17 тихо ()   20000 м    8/8 600 м кучево-дожд. 
[Cb cap]
-2.3 -7.4 68 -2  1031.7  0.7  698  284           
15 18.01.17 тихо ()   20000 м    4/4 1000 м 
[Sc]
-4.1 -7.1 80 -4  1032.6  0.2  699  286    +0.3       
18 18.01.17 290 (З) 20000 м    10/10 1000 м 
[Sc]
-3 -6.1 79 -3  1031.9  -0.2  698  285    +0.3       
21 18.01.17 270 (З) 20000 м    3/3 1000 м 
[Sc]
-2.6 -5.2 82 -2  1031.1  -0.6  698  284           
00 19.01.17 тихо ()   20000 м    3/0 верхняя 
[Ci sp]
-4.8 -6.8 86 -5  1032.1  0.1  698  287           
03 19.01.17 320 (СЗ) 20000 м    9/8 1000 м верхняя 
[Sc|Ci sp]
-3 -7.6 71 -3  1031.5  698  285        22  равномерный
мокрый или
старый снег
100% 
06 19.01.17 тихо ()   20000 м    8/3 1000 м верхняя 
[Sc|Ci sp]
+2.2 -5.4 57 +2  1029.8  0.5  698  280  -5.1         
09 19.01.17 160 (Ю) 20000 м    8/4 1000 м верхняя 
[Sc|Ci sp]
+2.2 -3.8 64 +3  1028.2  -1.5  697  279           
12 19.01.17 160 (Ю) 20000 м    9/9 600 м 
[Sc]
+0.3 -2.7 80 +1  1029.1  0.2  697  281           
15 19.01.17 270 (З) 20000 м    6/6 600 м кучево-дожд. 
[Cb cap]
-0.4 -5.2 70 1029.2  -0.3  697  282    +2.6       
18 19.01.17 тихо ()   20000 м    9/9 600 м кучево-дожд. 
[Cb cap]
-1.3 -5 76 -1  1029.1  -0.4  697  283    +2.6       
21 19.01.17 320 (СЗ) 20000 м    6/3 600 м кучево-дожд., верхняя 
[Cb cap|Ci sp]
-0.3 -4.7 72 1027.4  -1.1  696  281           
00 20.01.17 320 (СЗ) 20000 м    10/0 верхняя 
[Ci sp]
-1.2 -5.2 74 -2  1027.8  696  282           
03 20.01.17 290 (З) 20000 м    10/4 1000 м верхняя 
[Sc|Ci sp]
-1.8 -6.7 69 -1  1027.9  -0.1  696  283        22  равномерный
мокрый или
старый снег
100% 
06 20.01.17 тихо ()   20000 м    10/0 средняя 
[As op]
-0.1 -3.7 77 -0  1028.4  1.1  697  281  -2.2         
09 20.01.17 320 (СЗ) 20000 м    10/4 1000 м верхняя 
[Sc|Ci sp]
+3.6 -0.5 75 +4  1024.2  -2.5  695  276           
12 20.01.17 340 (С) 20000 м    10/6 300 м верхняя 
[Sc|Ci sp]
+2.8 -2.7 67 +4  1023.4  -1.1  694  277           
15 20.01.17 320 (СЗ) 20000 м    10/10 1000 м 
[Sc]
+3.6 -3.4 60 +4  1022  -1  693  276    +4       
18 20.01.17 140 (ЮВ) 20000 м    10/10 1000 м 
[Sc]
+3.4 -3.3 61 +4  1021.4  -0.6  693  276    +4       
21 20.01.17 160 (Ю) 4000 м  слаб. ливневой снег  10/10 600 м кучево-дожд. 
[Cb cap]
-0.3 -2.1 88 1023  0.3  693  280           
Время (UTC), дата Ветер
(°,м/с) 
Видим.   Явления Облачность Т
(°С)
Тd
(°С)
f(%) Тe
(°С)
Pmin
(гПа)
dP
(гПа)
Po
(мм)
O2
(г/м3)
Тmin Tmax R s Состояние
почвы

Для получения пояснительной информации подведите курсор к названию столбца.

ПОГОДА Ачисай - архив

Всё, что Вы хотите узнать о погоде Ачисай - удобно и подробно!

Выберите нужную дату (начиная с 1 января 2015* года) и нажмите кнопку "Найти".
Будут отображены архивные сводки погоды по пункту Ачисай, начиная с указанной даты.


Отображать данные в формате CSV (для использования в таблицах Excel)


Внимание! Наш архив погоды предназначен исключительно для личного некоммерческого использования в познавательных целях. Если Вам необходимы официальные справки о состоянии погоды (для производственных, юридических, коммерческих и т.п. целей), обращайтесь в органы Росгидромета.

*Примечание: данная дата относится к архиву по метеостанциям СССР (Россия, СНГ, Балтия).
Архив по метеостанциям Зарубежной Европы и Азии (кроме Китая) хранится 10 дней, по другим регионам земного шара (Китай, Африка, Америка, Австралия, Океания) - 1 день.

Ачисай - район местоположения метеостанции


Название, широта, долгота, высота метеостанции:
Ачисай 43.6°ш. 68.9°д. 822 м над ур. моря [Казахстан]

Дополнительная информация

В oтличие oт бoльшинства пoгoдных сайтoв мы публикуем пoдрoбную метеoинфoрмацию в детальнoм прoфессиoнальнoм фoрмате.

Характеристики температуры и влажнoсти вoздуха измеряются на высoте 2 м в тени вдали oт зданий и деревьев.
Скoрoсть ветра измеряется на высoте 10 м (на урoвне рoста челoвека скoрoсть ветра ниже в 1.5-2 раза). Если метеoстанция нахoдится в гoрoде или в лесу, тo скoрoсть ветра занижена на 2-4 м/с пo сравнению с oткрытым местoм. Скoрoсть ветра над акватoриями крупных рек и oзёр, а также на вершинах хoлмoв на 2-5 м/с выше, чем в oбычных услoвиях.
Атмoсфернoе давление в разных тoчках местнoсти мoжет значительнo oтличаться oт давления на метеoстанции, в зависимoсти oт услoвий рельефа (при пoдъёме на 10 м давление пoнижается примернo на 1 мм рт.ст.).